SKW3471 KTUS-KSNA

Flight info

Callsign SKW3471
Flight time 1h 7m
Altitude 30000
Route WLDKT4 GBN J104 CULTS HRRBR EMLLD DSNEE6
Aircraft E75L/M-SDE3GILORVW/S

Departure

Time 2026-04-21 21:30
Airport Tucson International Airport (KTUS)

Arrival

Time 2026-04-21 22:37
Airport John Wayne Orange County International Airport (KSNA)
Time Latitude Longitude Altitude Speed Heading
2026-04-21 21:02 32.12027 -110.93921 2650 ft 0 kts 52°
2026-04-21 21:18 32.12027 -110.93922 2650 ft 1 kts 52°
2026-04-21 21:18 32.12017 -110.93935 2650 ft 2 kts 52°
2026-04-21 21:18 32.12008 -110.93950 2650 ft 2 kts 52°
2026-04-21 21:18 32.11999 -110.93964 2650 ft 2 kts 52°
2026-04-21 21:19 32.11991 -110.93975 2650 ft 0 kts 52°
2026-04-21 21:19 32.11983 -110.93984 2650 ft 2 kts 13°
2026-04-21 21:19 32.11969 -110.93981 2650 ft 0 kts 322°
2026-04-21 21:19 32.11965 -110.93976 2650 ft 1 kts 310°
2026-04-21 21:20 32.11963 -110.93973 2650 ft 0 kts 314°
2026-04-21 21:23 32.11964 -110.93974 2650 ft 0 kts 314°
2026-04-21 21:23 32.11975 -110.93989 2650 ft 3 kts 313°
2026-04-21 21:23 32.12002 -110.94021 2650 ft 7 kts 314°
2026-04-21 21:24 32.12025 -110.94087 2650 ft 10 kts 252°
2026-04-21 21:24 32.11969 -110.94113 2650 ft 10 kts 143°
2026-04-21 21:24 32.11916 -110.94051 2650 ft 11 kts 134°
2026-04-21 21:24 32.11852 -110.93981 2650 ft 13 kts 138°
2026-04-21 21:25 32.11784 -110.93899 2651 ft 14 kts 133°
2026-04-21 21:25 32.11707 -110.93807 2651 ft 16 kts 135°
2026-04-21 21:25 32.11621 -110.93707 2651 ft 18 kts 135°
2026-04-21 21:25 32.11526 -110.93596 2651 ft 20 kts 135°
2026-04-21 21:26 32.11421 -110.93471 2652 ft 22 kts 135°
2026-04-21 21:26 32.11308 -110.93340 2652 ft 23 kts 134°
2026-04-21 21:26 32.11187 -110.93197 2652 ft 25 kts 136°
2026-04-21 21:26 32.11056 -110.93045 2653 ft 27 kts 135°
2026-04-21 21:27 32.10922 -110.92887 2653 ft 27 kts 134°
2026-04-21 21:27 32.10784 -110.92725 2653 ft 28 kts 135°
2026-04-21 21:27 32.10645 -110.92561 2654 ft 28 kts 135°
2026-04-21 21:27 32.10503 -110.92394 2654 ft 28 kts 135°
2026-04-21 21:28 32.10389 -110.92261 2655 ft 18 kts 136°
2026-04-21 21:28 32.10309 -110.92187 2655 ft 12 kts 185°
2026-04-21 21:28 32.10223 -110.92311 2655 ft 9 kts 311°
2026-04-21 21:29 32.10361 -110.92473 2654 ft 56 kts 314°
2026-04-21 21:29 32.10776 -110.92960 2653 ft 109 kts 314°
2026-04-21 21:29 32.11428 -110.93727 2653 ft 151 kts 314°
2026-04-21 21:29 32.12206 -110.94636 2921 ft 162 kts 313°
2026-04-21 21:30 32.13022 -110.95586 3371 ft 169 kts 312°
2026-04-21 21:30 32.13848 -110.96562 3945 ft 169 kts 313°
2026-04-21 21:30 32.14708 -110.97578 4252 ft 190 kts 313°
2026-04-21 21:30 32.15717 -110.98769 4479 ft 216 kts 313°
2026-04-21 21:31 32.16838 -111.00090 4885 ft 234 kts 313°
2026-04-21 21:31 32.17980 -111.01436 5581 ft 236 kts 313°
2026-04-21 21:31 32.19168 -111.02839 5972 ft 253 kts 313°
2026-04-21 21:31 32.20486 -111.04391 6222 ft 276 kts 312°
2026-04-21 21:32 32.21859 -111.06061 6632 ft 288 kts 304°
2026-04-21 21:32 32.22627 -111.08202 7237 ft 286 kts 279°
2026-04-21 21:32 32.22981 -111.10480 7870 ft 287 kts 278°
2026-04-21 21:32 32.23327 -111.12785 8463 ft 288 kts 278°
2026-04-21 21:33 32.23675 -111.15142 9025 ft 291 kts 277°
2026-04-21 21:33 32.24018 -111.17484 9576 ft 294 kts 277°
2026-04-21 21:33 32.24370 -111.19898 10138 ft 296 kts 277°
2026-04-21 21:33 32.24720 -111.22297 10629 ft 301 kts 277°
2026-04-21 21:34 32.25078 -111.24757 11061 ft 308 kts 277°
2026-04-21 21:34 32.25443 -111.27271 11483 ft 315 kts 277°
2026-04-21 21:34 32.25815 -111.29832 11915 ft 322 kts 277°
2026-04-21 21:34 32.26199 -111.32481 12383 ft 328 kts 278°
2026-04-21 21:35 32.26584 -111.35134 12909 ft 331 kts 278°
2026-04-21 21:35 32.26969 -111.37799 13464 ft 333 kts 278°
2026-04-21 21:35 32.27361 -111.40518 14028 ft 334 kts 278°
2026-04-21 21:35 32.27750 -111.43220 14570 ft 336 kts 278°
2026-04-21 21:36 32.28242 -111.45921 15071 ft 340 kts 290°
2026-04-21 21:36 32.29420 -111.48341 15572 ft 344 kts 302°
2026-04-21 21:36 32.30755 -111.50719 16092 ft 346 kts 302°
2026-04-21 21:36 32.32086 -111.53082 16598 ft 347 kts 302°
2026-04-21 21:37 32.33422 -111.55452 17091 ft 349 kts 302°
2026-04-21 21:37 32.34777 -111.57858 17582 ft 351 kts 302°
2026-04-21 21:37 32.36128 -111.60255 18063 ft 352 kts 302°
2026-04-21 21:37 32.37488 -111.62671 18539 ft 354 kts 302°
2026-04-21 21:38 32.38854 -111.65099 19007 ft 355 kts 301°
2026-04-21 21:38 32.40233 -111.67551 19471 ft 357 kts 301°
2026-04-21 21:38 32.41607 -111.69997 19920 ft 359 kts 301°
2026-04-21 21:38 32.42981 -111.72442 20361 ft 361 kts 301°
2026-04-21 21:39 32.44387 -111.74949 20801 ft 362 kts 301°
2026-04-21 21:39 32.45789 -111.77449 21225 ft 364 kts 301°
2026-04-21 21:39 32.47179 -111.79929 21635 ft 366 kts 301°
2026-04-21 21:39 32.48589 -111.82446 22043 ft 367 kts 301°
2026-04-21 21:40 32.50017 -111.84997 22443 ft 369 kts 301°
2026-04-21 21:40 32.51436 -111.87533 22831 ft 371 kts 301°
2026-04-21 21:40 32.52861 -111.90084 23215 ft 372 kts 301°
2026-04-21 21:40 32.54286 -111.92634 23592 ft 374 kts 301°
2026-04-21 21:41 32.55727 -111.95216 23967 ft 375 kts 301°
2026-04-21 21:41 32.57165 -111.97795 24321 ft 377 kts 301°
2026-04-21 21:41 32.58613 -112.00391 24669 ft 378 kts 301°
2026-04-21 21:41 32.60069 -112.03006 25014 ft 380 kts 301°
2026-04-21 21:42 32.61523 -112.05617 25355 ft 381 kts 301°
2026-04-21 21:42 32.62999 -112.08270 25699 ft 383 kts 301°
2026-04-21 21:42 32.64467 -112.10910 26036 ft 384 kts 301°
2026-04-21 21:42 32.65941 -112.13565 26370 ft 385 kts 301°
2026-04-21 21:43 32.67412 -112.16215 26694 ft 386 kts 301°
2026-04-21 21:43 32.68884 -112.18869 27005 ft 388 kts 301°
2026-04-21 21:43 32.70370 -112.21551 27311 ft 389 kts 301°
2026-04-21 21:43 32.71859 -112.24237 27613 ft 391 kts 301°
2026-04-21 21:44 32.73359 -112.26948 27909 ft 393 kts 301°
2026-04-21 21:44 32.74872 -112.29683 28200 ft 394 kts 301°
2026-04-21 21:44 32.76373 -112.32399 28483 ft 396 kts 301°
2026-04-21 21:44 32.77884 -112.35135 28764 ft 397 kts 301°
2026-04-21 21:45 32.79406 -112.37892 29053 ft 399 kts 301°
2026-04-21 21:45 32.80927 -112.40650 29339 ft 400 kts 301°
2026-04-21 21:45 32.82446 -112.43407 29622 ft 402 kts 301°
2026-04-21 21:45 32.83964 -112.46165 29905 ft 403 kts 301°
2026-04-21 21:46 32.85482 -112.48923 30052 ft 399 kts 301°
2026-04-21 21:46 32.88594 -112.54586 30074 ft 417 kts 301°
2026-04-21 21:47 32.91833 -112.60487 30003 ft 430 kts 301°
2026-04-21 21:47 32.95106 -112.66456 29965 ft 432 kts 301°
2026-04-21 21:48 32.99039 -112.71924 29951 ft 443 kts 309°
2026-04-21 21:48 33.03161 -112.77354 29936 ft 442 kts 309°
2026-04-21 21:49 33.07297 -112.82822 29942 ft 442 kts 309°
2026-04-21 21:49 33.11406 -112.88261 29949 ft 442 kts 309°
2026-04-21 21:50 33.15530 -112.93731 29958 ft 442 kts 309°
2026-04-21 21:50 33.19642 -112.99192 29968 ft 442 kts 309°
2026-04-21 21:51 33.23723 -113.04620 29979 ft 442 kts 309°
2026-04-21 21:51 33.27821 -113.10079 29984 ft 442 kts 308°
2026-04-21 21:52 33.31930 -113.15560 29986 ft 442 kts 308°
2026-04-21 21:52 33.36020 -113.21026 29989 ft 442 kts 308°
2026-04-21 21:53 33.40111 -113.26500 29990 ft 442 kts 308°
2026-04-21 21:53 33.44204 -113.31986 29988 ft 442 kts 308°
2026-04-21 21:54 33.48324 -113.37516 29992 ft 442 kts 308°
2026-04-21 21:54 33.52417 -113.43017 30001 ft 442 kts 308°
2026-04-21 21:55 33.56426 -113.48553 30009 ft 440 kts 303°
2026-04-21 21:55 33.59161 -113.55016 30019 ft 432 kts 285°
2026-04-21 21:56 33.60470 -113.61998 30011 ft 430 kts 280°
2026-04-21 21:56 33.61759 -113.68996 30008 ft 430 kts 280°
2026-04-21 21:57 33.63055 -113.75996 29999 ft 430 kts 280°
2026-04-21 21:57 33.64342 -113.82962 30002 ft 429 kts 280°
2026-04-21 21:58 33.66242 -113.89773 30016 ft 434 kts 292°
2026-04-21 21:58 33.68774 -113.96308 30024 ft 434 kts 291°
2026-04-21 21:59 33.71318 -114.02915 30034 ft 434 kts 291°
2026-04-21 21:59 33.73844 -114.09492 30015 ft 434 kts 291°
2026-04-21 22:00 33.75954 -114.16177 29995 ft 429 kts 279°
2026-04-21 22:00 33.76819 -114.23228 29977 ft 428 kts 276°
2026-04-21 22:01 33.77644 -114.30305 29966 ft 427 kts 276°
2026-04-21 22:01 33.78463 -114.37344 29961 ft 427 kts 276°
2026-04-21 22:02 33.79285 -114.44442 29955 ft 427 kts 276°
2026-04-21 22:02 33.80098 -114.51498 29946 ft 427 kts 276°
2026-04-21 22:03 33.80908 -114.58565 29946 ft 427 kts 276°
2026-04-21 22:03 33.81713 -114.65630 29944 ft 428 kts 275°
2026-04-21 22:04 33.82510 -114.72659 29950 ft 427 kts 275°
2026-04-21 22:04 33.83307 -114.79724 29956 ft 427 kts 275°
2026-04-21 22:05 33.84098 -114.86768 29963 ft 426 kts 275°
2026-04-21 22:05 33.84884 -114.93800 29968 ft 425 kts 275°
2026-04-21 22:06 33.85669 -115.00836 29973 ft 425 kts 274°
2026-04-21 22:06 33.86446 -115.07843 29969 ft 424 kts 274°
2026-04-21 22:07 33.87221 -115.14871 29965 ft 424 kts 274°
2026-04-21 22:07 33.87989 -115.21869 29963 ft 423 kts 274°
2026-04-21 22:08 33.88754 -115.28878 29967 ft 422 kts 274°
2026-04-21 22:08 33.89515 -115.35892 29983 ft 421 kts 274°
2026-04-21 22:09 33.90264 -115.42831 30001 ft 421 kts 274°
2026-04-21 22:09 33.91015 -115.49816 30021 ft 420 kts 273°
2026-04-21 22:10 33.91756 -115.56754 30010 ft 420 kts 273°
2026-04-21 22:10 33.92498 -115.63739 29925 ft 419 kts 273°
2026-04-21 22:10 33.92788 -115.67156 29910 ft 401 kts 270°
2026-04-21 22:11 33.93015 -115.70434 29904 ft 393 kts 270°
2026-04-21 22:11 33.93481 -115.77027 29721 ft 398 kts 270°
2026-04-21 22:11 33.93718 -115.80358 29227 ft 396 kts 270°
2026-04-21 22:12 33.93947 -115.83598 28697 ft 391 kts 270°
2026-04-21 22:12 33.94172 -115.86790 28191 ft 386 kts 270°
2026-04-21 22:12 33.94395 -115.89963 27754 ft 381 kts 269°
2026-04-21 22:12 33.94616 -115.93130 27333 ft 379 kts 269°
2026-04-21 22:13 33.94835 -115.96282 26836 ft 377 kts 269°
2026-04-21 22:13 33.95054 -115.99438 26403 ft 376 kts 269°
2026-04-21 22:13 33.95270 -116.02563 25984 ft 376 kts 269°
2026-04-21 22:13 33.95483 -116.05658 25588 ft 375 kts 269°
2026-04-21 22:14 33.95699 -116.08809 25209 ft 375 kts 269°
2026-04-21 22:14 33.95914 -116.11945 24810 ft 374 kts 269°
2026-04-21 22:14 33.96126 -116.15054 24466 ft 373 kts 269°
2026-04-21 22:14 33.96334 -116.18124 24079 ft 372 kts 269°
2026-04-21 22:15 33.96337 -116.21220 23682 ft 361 kts 258°
2026-04-21 22:15 33.95992 -116.24168 23481 ft 360 kts 257°
2026-04-21 22:15 33.95628 -116.27147 23231 ft 360 kts 257°
2026-04-21 22:15 33.95260 -116.30130 23023 ft 359 kts 257°
2026-04-21 22:16 33.94889 -116.33121 22871 ft 362 kts 257°
2026-04-21 22:16 33.94523 -116.36099 22491 ft 362 kts 257°
2026-04-21 22:16 33.94155 -116.39085 22025 ft 359 kts 257°
2026-04-21 22:16 33.93790 -116.42038 21571 ft 353 kts 257°
2026-04-21 22:17 33.93433 -116.44926 21104 ft 345 kts 257°
2026-04-21 22:17 33.93080 -116.47768 20771 ft 343 kts 257°
2026-04-21 22:17 33.92725 -116.50625 20499 ft 343 kts 257°
2026-04-21 22:17 33.92372 -116.53453 20220 ft 347 kts 258°
2026-04-21 22:18 33.92010 -116.56307 19792 ft 347 kts 257°
2026-04-21 22:18 33.91639 -116.59193 19283 ft 346 kts 257°
2026-04-21 22:18 33.91275 -116.62019 18585 ft 342 kts 257°
2026-04-21 22:18 33.90918 -116.64796 18040 ft 331 kts 257°
2026-04-21 22:19 33.90569 -116.67490 17576 ft 324 kts 257°
2026-04-21 22:19 33.90222 -116.70170 17199 ft 326 kts 257°
2026-04-21 22:19 33.89873 -116.72856 16834 ft 328 kts 257°
2026-04-21 22:19 33.89523 -116.75566 16485 ft 328 kts 258°
2026-04-21 22:20 33.89221 -116.78306 16136 ft 326 kts 259°
2026-04-21 22:20 33.88932 -116.80970 15847 ft 324 kts 259°
2026-04-21 22:20 33.88637 -116.83675 15576 ft 322 kts 259°
2026-04-21 22:20 33.88348 -116.86323 15322 ft 321 kts 259°
2026-04-21 22:21 33.88054 -116.89004 15145 ft 321 kts 259°
2026-04-21 22:21 33.87768 -116.91612 14839 ft 319 kts 258°
2026-04-21 22:21 33.87476 -116.94270 14522 ft 317 kts 258°
2026-04-21 22:21 33.87188 -116.96891 14185 ft 316 kts 258°
2026-04-21 22:22 33.86897 -116.99519 13834 ft 314 kts 258°
2026-04-21 22:22 33.86611 -117.02111 13398 ft 312 kts 258°
2026-04-21 22:22 33.86327 -117.04680 12969 ft 309 kts 258°
2026-04-21 22:22 33.86044 -117.07224 12545 ft 307 kts 258°
2026-04-21 22:23 33.85764 -117.09748 12088 ft 305 kts 258°
2026-04-21 22:23 33.85484 -117.12264 11662 ft 302 kts 258°
2026-04-21 22:23 33.85206 -117.14754 11244 ft 296 kts 258°
2026-04-21 22:23 33.84935 -117.17176 10838 ft 288 kts 258°
2026-04-21 22:24 33.84672 -117.19521 10457 ft 280 kts 258°
2026-04-21 22:24 33.84416 -117.21810 10084 ft 272 kts 258°
2026-04-21 22:24 33.84166 -117.24026 10055 ft 265 kts 258°
2026-04-21 22:24 33.83916 -117.26241 10058 ft 268 kts 258°
2026-04-21 22:25 33.83667 -117.28446 10015 ft 261 kts 259°
2026-04-21 22:25 33.83430 -117.30547 9791 ft 249 kts 259°
2026-04-21 22:25 33.83201 -117.32579 9543 ft 240 kts 259°
2026-04-21 22:25 33.82979 -117.34534 9292 ft 234 kts 259°
2026-04-21 22:26 33.82756 -117.36494 9043 ft 235 kts 259°
2026-04-21 22:26 33.82539 -117.38419 8796 ft 237 kts 259°
2026-04-21 22:26 33.82312 -117.40407 8532 ft 238 kts 260°
2026-04-21 22:26 33.82084 -117.42398 8265 ft 238 kts 260°
2026-04-21 22:27 33.81852 -117.44375 7994 ft 237 kts 256°
2026-04-21 22:27 33.81345 -117.46201 7933 ft 222 kts 248°
2026-04-21 22:27 33.80991 -117.47326 7921 ft 210 kts 248°
2026-04-21 22:27 33.80320 -117.49449 7955 ft 194 kts 248°
2026-04-21 22:28 33.79833 -117.50984 8016 ft 202 kts 249°
2026-04-21 22:28 33.79684 -117.52681 8001 ft 210 kts 283°
2026-04-21 22:28 33.80198 -117.54349 7719 ft 216 kts 290°
2026-04-21 22:28 33.80764 -117.56002 7414 ft 214 kts 290°
2026-04-21 22:29 33.81326 -117.57639 7121 ft 210 kts 290°
2026-04-21 22:29 33.81886 -117.59267 6840 ft 206 kts 290°
2026-04-21 22:29 33.82430 -117.60841 6576 ft 204 kts 290°
2026-04-21 22:29 33.82910 -117.62437 6308 ft 202 kts 277°
2026-04-21 22:30 33.83051 -117.64115 6018 ft 203 kts 273°
2026-04-21 22:30 33.83171 -117.65817 5643 ft 206 kts 273°
2026-04-21 22:30 33.83273 -117.67278 5359 ft 203 kts 273°
2026-04-21 22:30 33.83306 -117.69138 4890 ft 205 kts 268°
2026-04-21 22:31 33.83305 -117.70851 4519 ft 204 kts 268°
2026-04-21 22:31 33.83303 -117.72546 4317 ft 190 kts 268°
2026-04-21 22:31 33.83301 -117.74117 3953 ft 185 kts 268°
2026-04-21 22:31 33.83297 -117.75597 3614 ft 174 kts 267°
2026-04-21 22:32 33.82857 -117.76904 3321 ft 173 kts 225°
2026-04-21 22:32 33.81871 -117.77692 3078 ft 168 kts 211°
2026-04-21 22:32 33.80862 -117.78371 2836 ft 166 kts 210°
2026-04-21 22:32 33.79857 -117.79034 2613 ft 163 kts 210°
2026-04-21 22:33 33.78909 -117.79650 2423 ft 149 kts 210°
2026-04-21 22:33 33.77999 -117.80237 2214 ft 147 kts 210°
2026-04-21 22:33 33.77130 -117.80796 2020 ft 134 kts 210°
2026-04-21 22:33 33.76355 -117.81293 1801 ft 120 kts 210°
2026-04-21 22:34 33.75644 -117.81747 1661 ft 108 kts 210°
2026-04-21 22:34 33.74925 -117.82206 1549 ft 115 kts 209°
2026-04-21 22:34 33.74217 -117.82656 1416 ft 112 kts 210°
2026-04-21 22:34 33.73529 -117.83094 1268 ft 108 kts 208°
2026-04-21 22:35 33.72808 -117.83553 1114 ft 117 kts 208°
2026-04-21 22:35 33.72098 -117.84004 960 ft 107 kts 207°
2026-04-21 22:35 33.71426 -117.84432 779 ft 108 kts 206°
2026-04-21 22:35 33.70731 -117.84882 717 ft 108 kts 206°
2026-04-21 22:36 33.69389 -117.85744 439 ft 107 kts 205°
2026-04-21 22:36 33.68673 -117.86191 295 ft 112 kts 205°
2026-04-21 22:36 33.67980 -117.86623 74 ft 111 kts 206°
2026-04-21 22:37 33.67502 -117.86930 62 ft 25 kts 208°
2026-04-21 22:37 33.67384 -117.87004 64 ft 20 kts 205°
2026-04-21 22:37 33.67241 -117.87093 65 ft 26 kts 207°
2026-04-21 22:37 33.67103 -117.87180 65 ft 14 kts 208°
2026-04-21 22:38 33.67010 -117.87225 64 ft 14 kts 179°
2026-04-21 22:38 33.66921 -117.87168 62 ft 15 kts 126°
2026-04-21 22:38 33.66945 -117.87060 62 ft 15 kts 38°
2026-04-21 22:38 33.67031 -117.86974 62 ft 16 kts 40°
2026-04-21 22:39 33.67121 -117.86884 62 ft 17 kts 38°
2026-04-21 22:39 33.67233 -117.86802 61 ft 20 kts 28°
2026-04-21 22:39 33.67336 -117.86704 60 ft 19 kts 33°
2026-04-21 22:39 33.67456 -117.86620 58 ft 21 kts 29°
2026-04-21 22:40 33.67594 -117.86534 56 ft 23 kts 28°
2026-04-21 22:40 33.67727 -117.86452 54 ft 9 kts 28°
2026-04-21 22:40 33.67792 -117.86410 53 ft 11 kts 27°
2026-04-21 22:40 33.67848 -117.86370 53 ft 6 kts 54°
2026-04-21 22:41 33.67849 -117.86339 53 ft 3 kts 117°
2026-04-21 22:41 33.67836 -117.86310 53 ft 3 kts 118°
2026-04-21 22:41 33.67831 -117.86299 53 ft 0 kts 119°